Regional Weather Roundup
Issued by NWS

Home | Current Version | Previous Version | Text Only | Print | Product List | Glossary On
Versions: 1 2 3 4 5 6 7 8 9 10 11 12 13 14 15 16 17 18 19 20 21 22 23 24 25 26 27 28 29 30 31 32 33 34 35 36 37 38 39 40 41 42 43 44 45 46 47 48 49 50
000
ASUS43 KMKX 191111
RWRWI

WISCONSIN REGIONAL WEATHER ROUNDUP
NATIONAL WEATHER SERVICE MILWAUKEE/SULLIVAN WI
600 AM CDT FRI SEP 19 2014

NOTE: "FAIR" INDICATES FEW OR NO CLOUDS BELOW 12,000 FEET WITH NO
SIGNIFICANT WEATHER AND/OR OBSTRUCTIONS TO VISIBILITY.

WIZ001-002-006>008-014>016-023>028-191200-
NORTHWEST WISCONSIN

CITY           SKY/WX    TMP DP  RH WIND       PRES   REMARKS
SUPERIOR ARPT  CLOUDY    46  46  99 CALM      29.92S FOG
ASHLAND        CLOUDY    55  51  86 S10       29.95F
HAYWARD        MOCLDY    55  51  86 S8        29.98S
SIREN          MOCLDY    57  52  84 S12       29.95R
RICE LAKE      MOCLDY    51  50  93 SE6       30.01R FOG
LADYSMITH      MOCLDY    53  51  94 S7        30.03S
EAU CLAIRE     PTCLDY    53  50  89 SE8       30.01F
MENOMONIE      SUNNY     52  51  97 SE8       30.01R FOG
NEW RICHMOND   PTCLDY    56  50  79 S10G16    29.97S
OSCEOLA        MOCLDY    58  52  79 S9        29.99R
$$

WIZ003>005-009-010-017-018-191200-
NORTH CENTRAL WISCONSIN

CITY           SKY/WX    TMP DP  RH WIND       PRES   REMARKS
WOODRUFF       CLOUDY    53  51  92 S13G20    30.05F FOG
RHINELANDER    MOCLDY    50  49  96 S6        30.08S FOG
EAGLE RIVER    CLOUDY    51  50  99 S6        30.06F FOG
LAND O LAKES   CLOUDY    51  50  96 S7        30.06S FOG
PHILLIPS       MOCLDY    51  50  97 S8        30.02F
TOMAHAWK       CLOUDY    50  49  97 S5        30.07F FOG
MEDFORD        MOCLDY    49  49  98 SE8       30.06S FOG
MERRILL        MOCLDY    48  48 100 SE3       30.08F FOG
$$

WIZ029-030-035-036-043>047-191200-
CENTRAL WISCONSIN

CITY           SKY/WX    TMP DP  RH WIND       PRES   REMARKS
WAUSAU         PTCLDY    49  48  97 SE6       30.08S FOG
MOSINEE        MOCLDY    48  48 100 SE5       30.10R FOG
MARSHFIELD     MOCLDY    50  49  96 S9        30.07F FOG
STEVENS POINT  PTCLDY    46  46  99 S3        30.11R FOG
WAUPACA        FOG       50  49  95 SE3       30.13S VSB 1/4
WAUTOMA        CLOUDY    51  51 100 CALM      30.13R FOG
WISC RAPIDS    MOCLDY    49  48  97 SE5       30.11R FOG
CAMP DOUGLAS   PTCLDY    45  45 100 E8        30.09S FOG
$$

WIZ011>013-019>022-031-037>040-048>050-191200-
NORTHEAST WISCONSIN

CITY           SKY/WX    TMP DP  RH WIND       PRES   REMARKS
ANTIGO         FOG       47  47 100 S7        30.11R VSB 1/2
STURGEON BAY   CLOUDY    55  52  88 S10       30.16R
GREEN BAY      CLOUDY    51  51 100 S6        30.15R FOG
MANITOWOC      MOCLDY    55  54  96 S9        30.15S FOG
APPLETON         N/A     52  52 100 S8        30.14R FOG
CLINTONVILLE   FOG       45  45 100 SE6       30.12R VSB 1/2
OSHKOSH        CLOUDY    54  54 100 S10       30.13R FOG
$$

WIZ032>034-041-042-053>061-191200-
SOUTHWEST WISCONSIN

CITY           SKY/WX    TMP DP  RH WIND       PRES   REMARKS
LA CROSSE      PTCLDY    57  51  80 S9        30.04S
SPARTA         MOCLDY    54  49  82 S10       30.07S
VIROQUA        FAIR      51  51 100 SE10      30.07S
BOSCOBEL       PTCLDY    53  49  86 SW3       30.09S
PRAIRIE DU CHI PTCLDY    53  50  92 CALM      30.08S FOG
PLATTEVILLE    CLOUDY    51  50  97 SE8       30.11S VSB 1/2
$$

WIZ056-057-062-063-064-067-068-191200-
SOUTH CENTRAL WISCONSIN

CITY           SKY/WX    TMP DP  RH WIND       PRES   REMARKS
BARABOO/DELLS  CLOUDY    51  49  95 S5        30.11R FOG
LONE ROCK      MOCLDY    53  48  83 E6        30.11R HAZE
WATERTOWN      CLOUDY    54  54 100 S6        30.13F FOG
MADISON        CLOUDY    56  53  90 S12       30.12F FOG
MIDDLETON      CLOUDY    55  55  99 S8        30.12F
MONROE         CLOUDY    52  52 100 SE8       30.12F FOG
JANESVILLE     CLOUDY    57  55  94 SE8       30.13S FOG
$$

WIZ051-052-058>065-066-070>072-191200-
SOUTHEAST WISCONSIN

CITY           SKY/WX    TMP DP  RH WIND       PRES   REMARKS
MILWAUKEE      CLEAR     56  53  90 S7        30.15S FOG
WAUKESHA       FOG       52  52 100 SE3       30.15F VSB 1/4
MILWAUKEE/TIMM FOG       46  45  93 CALM      30.14F VSB 1/2
RACINE         CLEAR     58  54  86 S7        30.16F
BURLINGTON     FOG       49  49 100 CALM      30.15S VSB 1/4
KENOSHA        CLEAR     52  51  97 S3        30.16S
FOND DU LAC    CLOUDY    55  52  89 S6        30.13S FOG
SHEBOYGAN      CLOUDY    49  47  93 CALM      30.15R FOG
WEST BEND      FOG       46  46 100 CALM      30.14F VSB<1/4
JUNEAU         FOG       54  54 100 SE10      30.14S VSB 1/4
$$

LSZ147-162-191200-
LAKE SUPERIOR

STATION/POSITION TIME  TEMP    WIND        PRES    WAVE
                       AIR SEA DIR/SP/G            HT/PER
                 (UTC) (F)     (DEG/KT/KT) (MB)    (FT/S)
W MID LAKE BUOY  1050   53 48  190/ 17/ 19 1013.6F   2/ 3
DEVILS ISLAND    1100   55     190/  7/ 10 1013.5F
PORT WING        1000   57     200/  6/  9 1013.5F
SAXON HARBOR     1040   58     190/  4/ 14 1014.2F
$$

LMZ867-665-643>646-191200-
LAKE MICHIGAN

STATION/POSITION TIME  TEMP    WIND        PRES    WAVE
                       AIR SEA DIR/SP/G            HT/PER
                 (UTC) (F)     (DEG/KT/KT) (MB)    (FT/S)
N MID LAKE BUOY  1050   56 58  190/ 19/ 21 1021.2R   4/ 5
NORTHPORT PIER   1100   58     160/  9/ 17 1020.7R
SISTER BAY       1012   53     170/  8/ 12   N/A
KEWAUNEE LAKESHO 1000   52     180/  4/  5 1019.7F
SHEBOYGAN LAKESH 1100   54 49  150/  8/  9 1021.3R
PORT WASHINGTON  1040   57     240/  1/  3 1021.3F
ATWATER BUOY     1100   59     180/  8/ 10 1021.5F
MILWAUKEE LAKESH 1000   59     190/  4/  5   N/A
S MID LAKE BUOY  1050   62 64  150/ 16/ 17 1021.5R   3/ 4
KENOSHA   LAKESH 1100   60     190/  9/ 12 1020.7S
$$

TC  - TEMPERATURE IN CELSIUS
VSB - VISIBILITY IN STATUTE MILES
WCI - WIND CHILL INDEX
HX  - HEAT INDEX



USA.gov is the U.S. government's official web portal to all federal, state and local government web resources and services.